Weather History for KFMY - October, 2012

Change the Weather History Date:

Tuesday, October 23, 2012

  Actual Average Record
Temperature  
Mean Temperature 77 °F 76 °F  
Max Temperature 87 °F 85 °F 91 °F (1919)
Min Temperature 67 °F 67 °F 53 °F (1916)
Degree Days  
Heating Degree Days 0 0  
Month to date heating degree days 0 0  
Since 1 July heating degree days 0 0  
Cooling Degree Days 12 11  
Month to date cooling degree days 357 317  
Year to date cooling degree days 4033 3563  
Growing Degree Days 27 (Base 50)    
Moisture  
Dew Point 65 °F    
Average Humidity 70    
Maximum Humidity 87    
Minimum Humidity 48    
Precipitation  
Precipitation 0.00 in 0.08 in 1.91 in (1969)
Month to date precipitation 4.90 2.30  
Year to date precipitation 46.74 51.68  
Sea Level Pressure  
Sea Level Pressure 29.97 in    
Wind  
Wind Speed 10 mph (ENE)    
Max Wind Speed 21 mph    
Max Gust Speed 29 mph    
Visibility 10 miles    
Events      
T = Trace of Precipitation, MM = Missing Value Source: NWS Daily Summary

Daily Weather History Graph

Daily Weather History Graph

Search for Another Location

Airport or City:

Trip Planner

Search our weather history database for the weather conditions in past years. The results will help you decide how hot, cold, wet, or windy it might be!

Date:

Astronomy

Oct. 23, 2012 Rise Set
Actual Time 7:31 AM EDT 6:51 PM EDT
Civil Twilight 7:07 AM EDT 7:15 PM EDT
Nautical Twilight 6:40 AM EDT 7:42 PM EDT
Astronomical Twilight 6:13 AM EDT 8:09 PM EDT
Moon 3:05 PM EDT (10/23) 1:54 AM EDT (10/23)
Length of Visible Light 12h 07m
Length of Day
11h 19m
Waxing Gibbous, 66% of the Moon is Illuminated
Oct 23
Waxing Gibbous
Oct 29
Full
Nov 6
Last Quarter
Nov 13
New
Nov 20
First Quarter

Hourly Weather History & Observations

Time (EDT) Temp. Heat Index Dew Point Humidity Pressure Visibility Wind Dir Wind Speed Gust Speed Precip Events Conditions
2:53 AM 71.1 °F - 64.9 °F 81% 29.99 in 10.0 mi NE 8.1 mph - N/A   Partly Cloudy
3:53 AM 70.0 °F - 64.0 °F 81% 29.98 in 10.0 mi NE 8.1 mph - N/A   Clear
4:53 AM 69.1 °F - 64.0 °F 84% 29.98 in 10.0 mi NE 4.6 mph - N/A   Clear
5:53 AM 68.0 °F - 64.0 °F 87% 29.98 in 10.0 mi NE 4.6 mph - N/A   Clear
6:53 AM 68.0 °F - 63.0 °F 84% 29.99 in 10.0 mi NNE 6.9 mph - N/A   Clear
7:53 AM 68.0 °F - 63.0 °F 84% 29.99 in 10.0 mi NE 6.9 mph - N/A   Clear
8:53 AM 72.0 °F - 64.0 °F 76% 30.00 in 10.0 mi NE 6.9 mph - N/A   Clear
9:53 AM 77.0 °F - 66.9 °F 71% 30.00 in 10.0 mi NE 11.5 mph - N/A   Clear
10:53 AM 80.1 °F 82.1 °F 66.0 °F 62% 30.00 in 10.0 mi ENE 13.8 mph - N/A   Clear
11:53 AM 82.9 °F 84.4 °F 64.0 °F 53% 29.99 in 10.0 mi East 13.8 mph 23.0 mph N/A   Scattered Clouds
1:53 PM 86.0 °F 87.3 °F 64.0 °F 48% 29.93 in 10.0 mi ENE 12.7 mph 19.6 mph N/A   Mostly Cloudy
2:53 PM 84.9 °F 85.9 °F 63.0 °F 48% 29.92 in 10.0 mi East 13.8 mph - N/A   Scattered Clouds
3:53 PM 84.9 °F 86.1 °F 64.0 °F 49% 29.91 in 10.0 mi East 11.5 mph - N/A   Scattered Clouds
4:53 PM 86.0 °F 87.6 °F 64.9 °F 49% 29.91 in 10.0 mi ENE 11.5 mph 19.6 mph N/A   Scattered Clouds
5:53 PM 81.0 °F 83.8 °F 68.0 °F 65% 29.93 in 10.0 mi ENE 20.7 mph 26.5 mph N/A   Scattered Clouds
6:53 PM 78.1 °F - 68.0 °F 71% 29.94 in 10.0 mi ENE 13.8 mph 20.7 mph N/A   Clear
7:53 PM 77.0 °F - 66.9 °F 71% 29.96 in 10.0 mi ENE 9.2 mph - N/A   Overcast
8:53 PM 75.9 °F - 66.9 °F 74% 29.98 in 10.0 mi ENE 11.5 mph - N/A   Mostly Cloudy
9:53 PM 75.9 °F - 66.9 °F 74% 29.99 in 10.0 mi ENE 9.2 mph - N/A   Overcast
10:53 PM 73.9 °F - 66.9 °F 79% 30.00 in 10.0 mi NE 8.1 mph - N/A   Clear
11:53 PM 73.0 °F - 66.9 °F 81% 29.99 in 10.0 mi NE 5.8 mph - N/A   Clear